H1 CPF 2 NER 2021 1 9 9 009 01 glonass128 H2 1106401 9128 37867 2021 1 9 0 0 0 2021 1 12 23 45 0 900 1 1 0 0 0 1 H9 10 0 59223 0.00000 0 21881548.550 13160279.663 -393533.807 10 0 59223 900.00000 0 21828520.162 12961439.226 2808429.612 10 0 59223 1800.00000 0 21409502.546 12598238.956 5956051.792 10 0 59223 2700.00000 0 20612971.943 12125128.451 8988472.586 10 0 59223 3600.00000 0 19440360.838 11598852.174 11847101.073 10 0 59223 4500.00000 0 17906161.110 11075883.111 14476730.850 10 0 59223 5400.00000 0 16037499.889 10609884.097 16826588.382 10 0 59223 6300.00000 0 13873205.518 10249302.333 18851295.837 10 0 59223 7200.00000 0 11462401.888 10035196.722 20511731.471 10 0 59223 8100.00000 0 8862688.219 9999387.921 21775772.663 10 0 59223 9000.00000 0 6137977.964 10163007.722 22618908.644 10 0 59223 9900.00000 0 3356084.207 10535508.084 23024712.096 10 0 59223 10800.00000 0 586149.074 11114171.531 22985161.075 10 0 59223 11700.00000 0 -2103978.959 11884144.351 22500804.963 10 0 59223 12600.00000 0 -4650313.469 12818992.790 21580770.558 10 0 59223 13500.00000 0 -6995139.749 13881761.095 20242606.945 10 0 59223 14400.00000 0 -9089167.125 15026489.604 18511970.331 10 0 59223 15300.00000 0 -10893335.191 16200131.776 16422152.873 10 0 59223 16200.00000 0 -12380198.855 17344792.077 14013462.292 10 0 59223 17100.00000 0 -13534833.925 18400192.635 11332462.036 10 0 59223 18000.00000 0 -14355224.341 19306266.015 8431084.772 10 0 59223 18900.00000 0 -14852113.651 20005765.294 5365634.858 10 0 59223 19800.00000 0 -15048325.759 20446780.789 2195698.170 10 0 59223 20700.00000 0 -14977582.525 20585055.770 -1017019.683 10 0 59223 21600.00000 0 -14682867.567 20386001.222 -4209903.785 10 0 59223 22500.00000 0 -14214405.425 19826321.930 -7320664.348 10 0 59223 23400.00000 0 -13627342.209 18895182.363 -10288569.425 10 0 59223 24300.00000 0 -12979227.238 17594860.396 -13055649.998 10 0 59223 25200.00000 0 -12327404.101 15940858.912 -15567851.838 10 0 59223 26100.00000 0 -11726423.736 13961468.779 -17776109.594 10 0 59223 27000.00000 0 -11225591.279 11696800.478 -19637320.373 10 0 59223 27900.00000 0 -10866752.554 9197324.579 -21115196.433 10 0 59223 28800.00000 0 -10682415.524 6521982.644 -22180979.335 10 0 59223 29700.00000 0 -10694287.247 3735948.326 -22814001.260 10 0 59223 30600.00000 0 -10912288.674 908133.298 -23002082.631 10 0 59223 31500.00000 0 -11334088.710 -1891456.636 -22741758.808 10 0 59223 32400.00000 0 -11945176.465 -4594404.164 -22038332.434 10 0 59223 33300.00000 0 -12719467.393 -7136489.480 -20905751.584 10 0 59223 34200.00000 0 -13620416.193 -9460116.976 -19366317.545 10 0 59223 35100.00000 0 -14602587.846 -11516459.319 -17450229.388 10 0 59223 36000.00000 0 -15613618.899 -13267230.972 -15194975.659 10 0 59223 36900.00000 0 -16596484.877 -14686019.274 -12644586.479 10 0 59223 37800.00000 0 -17491977.179 -15759120.150 -9848761.846 10 0 59223 38700.00000 0 -18241284.439 -16485846.626 -6861894.120 10 0 59223 39600.00000 0 -18788569.415 -16878300.319 -3742004.567 10 0 59223 40500.00000 0 -19083433.241 -16960618.627 -549615.143 10 0 59223 41400.00000 0 -19083164.023 -16767732.014 2653422.435 10 0 59223 42300.00000 0 -18754676.255 -16343685.762 5805117.670 10 0 59223 43200.00000 0 -18076060.742 -15739598.348 8844529.790 10 0 59223 44100.00000 0 -17037681.116 -15011343.083 11712931.710 10 0 59223 45000.00000 0 -15642771.969 -14217050.524 14354928.013 10 0 59223 45900.00000 0 -13907514.095 -13414536.025 16719506.936 10 0 59223 46800.00000 0 -11860583.723 -12658759.317 18761007.691 10 0 59223 47700.00000 0 -9542193.950 -11999421.286 20439986.138 10 0 59223 48600.00000 0 -7002667.049 -11478797.185 21723963.778 10 0 59223 49500.00000 0 -4300595.066 -11129895.669 22588047.074 10 0 59223 50400.00000 0 -1500662.834 -10975019.755 23015406.137 10 0 59223 51300.00000 0 1328779.075 -11024789.473 22997604.109 10 0 59223 52200.00000 0 4118293.639 -11277667.330 22534770.879 10 0 59223 53100.00000 0 6799984.606 -11720007.353 21635617.069 10 0 59223 54000.00000 0 9310065.120 -12326627.191 20317286.826 10 0 59223 54900.00000 0 11591262.933 -13061881.311 18605050.460 10 0 59223 55800.00000 0 13594963.349 -13881192.549 16531840.804 10 0 59223 56700.00000 0 15283001.136 -14732979.958 14137639.950 10 0 59223 57600.00000 0 16629026.438 -15560903.860 11468725.970 10 0 59223 58500.00000 0 17619386.656 -16306335.008 8576792.268 10 0 59223 59400.00000 0 18253486.202 -16910944.427 5517955.058 10 0 59223 60300.00000 0 18543607.619 -17319304.459 2351667.247 10 0 59223 61200.00000 0 18514200.274 -17481390.047 -860440.402 10 0 59223 62100.00000 0 18200665.686 -17354872.676 -4055767.902 10 0 59223 63000.00000 0 17647690.309 -16907107.493 -7171979.933 10 0 59223 63900.00000 0 16907196.400 -16116726.755 -10148239.297 10 0 59223 64800.00000 0 16035998.493 -14974769.347 -12926414.007 10 0 59223 65700.00000 0 15093266.018 -13485295.926 -15452232.409 10 0 59223 66600.00000 0 14137901.288 -11665461.496 -17676361.671 10 0 59223 67500.00000 0 13225945.793 -9545040.664 -19555386.828 10 0 59223 68400.00000 0 12408126.498 -7165424.562 -21052669.844 10 0 59223 69300.00000 0 11727647.552 -4578131.285 -22139070.909 10 0 59223 70200.00000 0 11218321.934 -1842892.600 -22793517.499 10 0 59223 71100.00000 0 10903122.501 974602.333 -23003410.158 10 0 59223 72000.00000 0 10793213.505 3805210.904 -22764857.628 10 0 59223 72900.00000 0 10887502.651 6578983.245 -22082737.676 10 0 59223 73800.00000 0 11172731.259 9227839.669 -20970583.631 10 0 59223 74700.00000 0 11624096.924 11688167.382 -19450300.270 10 0 59223 75600.00000 0 12206380.412 13903228.624 -17551716.058 10 0 59223 76500.00000 0 12875527.185 15825280.822 -15311981.927 10 0 59223 77400.00000 0 13580614.932 17417321.876 -12774829.746 10 0 59223 78300.00000 0 14266122.491 18654389.980 -9989706.178 10 0 59223 79200.00000 0 14874403.293 19524366.344 -7010799.798 10 0 59223 80100.00000 0 15348258.326 20028250.150 -3895981.309 10 0 59223 81000.00000 0 15633499.993 20179897.269 -705677.942 10 0 59223 81900.00000 0 15681399.157 20005236.531 2498295.904 10 0 59223 82800.00000 0 15450913.044 19540998.856 5653929.160 10 0 59223 83700.00000 0 14910601.277 18833014.457 8700203.189 10 0 59223 84600.00000 0 14040150.540 17934150.802 11578257.378 10 0 59223 85500.00000 0 12831444.890 16901978.282 14232509.780 10 0 59224 0.00000 0 11289137.559 15796261.240 16611712.643 10 0 59224 900.00000 0 9430700.046 14676378.784 18669924.383 10 0 59224 1800.00000 0 7285947.307 13598781.574 20367380.247 10 0 59224 2700.00000 0 4896055.859 12614590.479 21671247.414 10 0 59224 3600.00000 0 2312115.686 11767434.634 22556250.837 10 0 59224 4500.00000 0 -406727.152 11091618.860 23005158.942 10 0 59224 5400.00000 0 -3195462.412 10610695.568 23009120.442 10 0 59224 6300.00000 0 -5985654.234 10336500.519 22567845.732 10 0 59224 7200.00000 0 -8708028.017 10268692.951 21689628.747 10 0 59224 8100.00000 0 -11295100.984 10394820.197 20391207.634 10 0 59224 9000.00000 0 -13683749.464 10690905.483 18697465.205 10 0 59224 9900.00000 0 -15817607.594 11122536.139 16640972.863 10 0 59224 10800.00000 0 -17649198.434 11646408.494 14261384.542 10 0 59224 11700.00000 0 -19141708.666 12212266.434 11604690.086 10 0 59224 12600.00000 0 -20270331.942 12765153.484 8722340.584 10 0 59224 13500.00000 0 -21023123.496 13247884.398 5670260.967 10 0 59224 14400.00000 0 -21401328.623 13603632.032 2507768.034 10 0 59224 15300.00000 0 -21419169.632 13778519.455 -703585.343 10 0 59224 16200.00000 0 -21103098.889 13724106.130 -3901217.020 10 0 59224 17100.00000 0 -20490548.543 13399660.724 -7022748.900 10 0 59224 18000.00000 0 -19628229.362 12774121.639 -10007241.092 10 0 59224 18900.00000 0 -18570050.917 11827659.379 -12796400.984 10 0 59224 19800.00000 0 -17374751.964 10552771.745 -15335741.569 10 0 59224 20700.00000 0 -16103342.699 8954863.078 -17575664.299 10 0 59224 21600.00000 0 -14816468.787 7052280.933 -19472443.549 10 0 59224 22500.00000 0 -13571810.375 4875807.202 -20989092.023 10 0 59224 23400.00000 0 -12421627.679 2467624.329 -22096089.181 10 0 59224 24300.00000 0 -11410557.988 -120200.173 -22771958.040 10 0 59224 25200.00000 0 -10573757.723 -2827647.014 -23003679.138 10 0 59224 26100.00000 0 -9935467.933 -5589014.554 -22786934.096 10 0 59224 27000.00000 0 -9508062.966 -8335428.680 -22126174.949 10 0 59224 27900.00000 0 -9291621.047 -10997487.579 -21034519.100 10 0 59224 28800.00000 0 -9274032.953 -13507930.472 -19533473.335 10 0 59224 29700.00000 0 -9431641.932 -15804218.977 -17652493.767 10 0 59224 30600.00000 0 -9730385.444 -17830923.948 -15428391.760 10 0 59224 31500.00000 0 -10127388.188 -19541819.237 -12904598.833 10 0 59224 32400.00000 0 -10572937.090 -20901596.730 -10130306.130 10 0 59224 33300.00000 0 -11012753.139 -21887133.222 -7159496.233 10 0 59224 34200.00000 0 -11390463.007 -22488258.698 -4049887.073 10 0 59224 35100.00000 0 -11650165.483 -22707996.692 -861808.973 10 0 59224 36000.00000 0 -11738984.354 -22562269.376 2342963.151 10 0 59224 36900.00000 0 -11609500.487 -22079082.248 5502399.823 10 0 59224 37800.00000 0 -11221961.431 -21297224.633 8555406.709 10 0 59224 38700.00000 0 -10546176.485 -20264541.956 11442991.844 10 0 59224 39600.00000 0 -9563018.586 -19035852.916 14109388.910 10 0 59224 40500.00000 0 -8265470.769 -17670598.876 16503116.352 10 0 59224 41400.00000 0 -6659173.722 -16230323.179 18577953.586 10 0 59224 42300.00000 0 -4762451.430 -14776084.650 20293817.100 10 0 59224 43200.00000 0 -2605813.017 -13365911.750 21617521.284 10 0 59224 44100.00000 0 -230950.040 -12052401.926 22523410.782 10 0 59224 45000.00000 0 2310731.081 -10880564.640 22993853.179 10 0 59224 45900.00000 0 4959983.181 -9885996.606 23019583.227 10 0 59224 46800.00000 0 7651924.120 -9093464.374 22599891.922 10 0 59224 47700.00000 0 10318485.668 -8515953.023 21742656.212 10 0 59224 48600.00000 0 12891006.734 -8154220.921 20464207.590 10 0 59224 49500.00000 0 15302865.754 -7996879.984 18789040.357 10 0 59224 50400.00000 0 17492044.605 -8020999.440 16749363.120 10 0 59224 51300.00000 0 19403518.446 -8193209.380 14384499.945 10 0 59224 52200.00000 0 20991372.185 -8471259.441 11740150.394 10 0 59224 53100.00000 0 22220554.573 -8805968.570 8867520.831 10 0 59224 54000.00000 0 23068195.446 -9143484.684 5822342.191 10 0 59224 54900.00000 0 23524429.250 -9427759.303 2663792.186 10 0 59224 55800.00000 0 23592688.431 -9603132.153 -546657.372 10 0 59224 56700.00000 0 23289452.650 -9616915.236 -3746445.429 10 0 59224 57600.00000 0 22643462.963 -9421865.023 -6873154.316 10 0 59224 58500.00000 0 21694433.262 -8978435.615 -9865744.493 10 0 59224 59400.00000 0 20491313.129 -8256714.584 -12665765.509 10 0 59224 60300.00000 0 19090175.900 -7237956.586 -15218517.470 10 0 59224 61200.00000 0 17551822.188 -5915647.144 -17474138.225 10 0 59224 62100.00000 0 15939201.527 -4296049.221 -19388593.226 10 0 59224 63000.00000 0 14314762.618 -2398207.665 -20924547.286 10 0 59224 63900.00000 0 12737845.649 -253410.169 -22052100.130 10 0 59224 64800.00000 0 11262227.954 2095873.151 -22749370.930 10 0 59224 65700.00000 0 9933927.257 4597527.059 -23002920.463 10 0 59224 66600.00000 0 8789355.249 7191740.374 -22808003.096 10 0 59224 67500.00000 0 7853898.649 9813284.713 -22168644.640 10 0 59224 68400.00000 0 7140986.199 12394026.724 -21097545.718 10 0 59224 69300.00000 0 6651678.989 14865568.068 -19615813.938 10 0 59224 70200.00000 0 6374798.922 17161902.570 -17752531.570 10 0 59224 71100.00000 0 6287587.216 19221979.695 -15544168.617 10 0 59224 72000.00000 0 6356862.431 20992067.830 -13033854.177 10 0 59224 72900.00000 0 6540626.563 22427819.900 -10270521.543 10 0 59224 73800.00000 0 6790049.149 23495956.702 -7307944.736 10 0 59224 74700.00000 0 7051743.865 24175499.669 -4203686.158 10 0 59224 75600.00000 0 7270240.307 24458503.951 -1017976.325 10 0 59224 76500.00000 0 7390546.029 24350263.661 2187452.295 10 0 59224 77400.00000 0 7360690.722 23868983.084 5350554.768 10 0 59224 78300.00000 0 7134145.748 23044929.745 8410163.921 10 0 59224 79200.00000 0 6672017.887 21919106.400 11307159.146 10 0 59224 80100.00000 0 5944925.969 20541498.535 13985592.244 10 0 59224 81000.00000 0 4934482.438 18968970.982 16393750.066 10 0 59224 81900.00000 0 3634318.279 17262901.128 18485135.103 10 0 59224 82800.00000 0 2050608.591 15486646.571 20219346.762 10 0 59224 83700.00000 0 202076.368 13702951.344 21562848.057 10 0 59224 84600.00000 0 -1880526.835 11971396.979 22489604.409 10 0 59224 85500.00000 0 -4155443.437 10346002.735 22981583.303 10 0 59225 0.00000 0 -6571395.416 8873073.103 23029105.857 10 0 59225 900.00000 0 -9069474.325 7589380.934 22631043.502 10 0 59225 1800.00000 0 -11585359.474 6520760.333 21794855.579 10 0 59225 2700.00000 0 -14051776.078 5681168.904 20536465.732 10 0 59225 3600.00000 0 -16401093.342 5072257.129 18879978.023 10 0 59225 4500.00000 0 -18567956.696 4683464.997 16857236.032 10 0 59225 5400.00000 0 -20491846.084 4492642.423 14507231.257 10 0 59225 6300.00000 0 -22119454.248 4467169.060 11875369.915 10 0 59225 7200.00000 0 -23406785.332 4565527.850 9012610.341 10 0 59225 8100.00000 0 -24320885.061 4739267.160 5974486.028 10 0 59225 9000.00000 0 -24841128.323 4935269.335 2820032.142 10 0 59225 9900.00000 0 -24960008.093 5098229.798 -389363.942 10 0 59225 10800.00000 0 -24683390.497 5173240.977 -3591165.490 10 0 59225 11700.00000 0 -24030223.393 5108370.093 -6722918.284 10 0 59225 12600.00000 0 -23031709.328 4857119.396 -9723485.936 10 0 59225 13500.00000 0 -21729976.960 4380661.967 -12534262.690 10 0 59225 14400.00000 0 -20176306.844 3649755.435 -15100337.993 10 0 59225 15300.00000 0 -18428987.020 2646249.824 -17371587.947 10 0 59225 16200.00000 0 -16550889.923 1364123.120 -19303670.510 10 0 59225 17100.00000 0 -14606874.170 -190001.289 -20858903.557 10 0 59225 18000.00000 0 -12661122.314 -1996878.632 -22007007.508 10 0 59225 18900.00000 0 -10774527.986 -4025208.098 -22725697.602 10 0 59225 19800.00000 0 -9002243.342 -6232716.045 -23001114.239 10 0 59225 20700.00000 0 -7391490.427 -8567711.245 -22828083.443 10 0 59225 21600.00000 0 -5979728.084 -10971046.360 -22210203.284 10 0 59225 22500.00000 0 -4793250.401 -13378402.679 -21159755.728 10 0 59225 23400.00000 0 -3846273.863 -15722801.591 -19697447.035 10 0 59225 24300.00000 0 -3140549.184 -17937237.161 -17851983.236 10 0 59225 25200.00000 0 -2665511.308 -19957319.431 -15659490.443 10 0 59225 26100.00000 0 -2398958.311 -21723818.044 -13162792.730 10 0 59225 27000.00000 0 -2308227.535 -23185000.533 -10410562.941 10 0 59225 27900.00000 0 -2351816.647 -24298668.696 -7456364.017 10 0 59225 28800.00000 0 -2481378.875 -25033809.462 -4357600.409 10 0 59225 29700.00000 0 -2644006.473 -25371793.227 -1174400.555 10 0 59225 30600.00000 0 -2784704.868 -25307071.670 2031547.669 10 0 59225 31500.00000 0 -2848952.633 -24847348.096 5198185.876 10 0 59225 32400.00000 0 -2785239.375 -24013215.164 8264275.956 10 0 59225 33300.00000 0 -2547475.129 -22837276.875 11170570.451 10 0 59225 34200.00000 0 -2097170.718 -21362792.624 13860940.979 10 0 59225 35100.00000 0 -1405298.310 -19641900.514 16283444.370 10 0 59225 36000.00000 0 -453754.883 -17733493.872 18391307.615 10 0 59225 36900.00000 0 763632.254 -15700838.724 20143814.262 10 0 59225 37800.00000 0 2240600.014 -13609030.059 21507076.933 10 0 59225 38700.00000 0 3958465.990 -11522390.920 22454682.540 10 0 59225 39600.00000 0 5886667.475 -9501920.505 22968198.877 10 0 59225 40500.00000 0 7983802.618 -7602895.322 23037533.514 10 0 59225 41400.00000 0 10199133.023 -5872721.281 22661138.165 10 0 59225 42300.00000 0 12474488.109 -4349124.687 21846054.026 10 0 59225 43200.00000 0 14746495.107 -3058756.526 20607796.141 10 0 59225 44100.00000 0 16949044.814 -2016267.916 18970077.280 10 0 59225 45000.00000 0 19015892.804 -1223895.703 16964374.676 10 0 59225 45900.00000 0 20883289.555 -671576.319 14629345.670 10 0 59225 46800.00000 0 22492530.677 -337584.317 12010101.268 10 0 59225 47700.00000 0 23792320.734 -189670.103 9157349.623 10 0 59225 48600.00000 0 24740850.934 -186650.144 6126424.356 10 0 59225 49500.00000 0 25307502.076 -280383.408 2976215.408 10 0 59225 50400.00000 0 25474099.178 -418050.873 -231977.168 10 0 59225 51300.00000 0 25235662.766 -544641.210 -3435643.958 10 0 59225 52200.00000 0 24600622.942 -605536.234 -6572297.219 10 0 59225 53100.00000 0 23590485.279 -549084.771 -9580706.635 10 0 59225 54000.00000 0 22238961.222 -329053.425 -12402113.861 10 0 59225 54900.00000 0 20590598.906 93152.329 -14981400.116 10 0 59225 55800.00000 0 18698972.110 746593.579 -17268181.860 10 0 59225 56700.00000 0 16624504.242 1649312.828 -19217811.325 10 0 59225 57600.00000 0 14432020.069 2807323.313 -20792260.858 10 0 59225 58500.00000 0 12188129.627 4214117.236 -21960872.663 10 0 59225 59400.00000 0 9958555.643 5850714.733 -22700958.797 10 0 59225 60300.00000 0 7805517.868 7686252.076 -22998239.706 10 0 59225 61200.00000 0 5785284.821 9679084.209 -22847113.146 10 0 59225 62100.00000 0 3945995.693 11778354.777 -22250749.152 10 0 59225 63000.00000 0 2325842.997 13925966.961 -21221010.360 10 0 59225 63900.00000 0 951690.794 16058871.475 -19778200.624 10 0 59225 64800.00000 0 -161815.763 18111575.012 -17950648.303 10 0 59225 65700.00000 0 -1012614.915 20018763.456 -15774133.822 10 0 59225 66600.00000 0 -1611054.563 21717929.705 -13291174.113 10 0 59225 67500.00000 0 -1979190.895 23151896.293 -10550179.162 10 0 59225 68400.00000 0 -2149592.034 24271127.892 -7604498.166 10 0 59225 69300.00000 0 -2163699.914 25035737.966 -4511374.782 10 0 59225 70200.00000 0 -2069821.764 25417107.154 -1330832.395 10 0 59225 71100.00000 0 -1920837.644 25399047.416 1875488.727 10 0 59225 72000.00000 0 -1771721.693 24978465.159 5045519.755 10 0 59225 72900.00000 0 -1676982.000 24165497.463 8117954.545 10 0 59225 73800.00000 0 -1688126.770 22983117.323 11033421.545 10 0 59225 74700.00000 0 -1851262.772 21466225.602 13735614.733 10 0 59225 75600.00000 0 -2204926.186 19660268.231 16172363.230 10 0 59225 76500.00000 0 -2778235.995 17619436.294 18296620.570 10 0 59225 77400.00000 0 -3589446.587 15404523.334 20067356.216 10 0 59225 78300.00000 0 -4644959.848 13080527.741 21450333.880 10 0 59225 79200.00000 0 -5938838.232 10714098.087 22418763.143 10 0 59225 80100.00000 0 -7452840.018 8370925.472 22953812.937 10 0 59225 81000.00000 0 -9156976.799 6113188.915 23044977.743 10 0 59225 81900.00000 0 -11010572.212 3997157.674 22690289.542 10 0 59225 82800.00000 0 -12963780.371 2071048.346 21896370.948 10 0 59225 83700.00000 0 -14959503.706 373224.411 20678327.397 10 0 59225 84600.00000 0 -16935633.258 -1069187.628 19059478.859 10 0 59225 85500.00000 0 -18827520.598 -2241207.900 17070934.166 10 0 59226 0.00000 0 -20570580.375 -3140400.240 14751014.033 10 0 59226 900.00000 0 -22102916.036 -3776739.083 12144531.174 10 0 59226 1800.00000 0 -23367859.722 -4171950.931 9301940.336 10 0 59226 2700.00000 0 -24316318.542 -4358356.139 6278371.748 10 0 59226 3600.00000 0 -24908828.796 -4377259.797 3132566.495 10 0 59226 4500.00000 0 -25117228.769 -4276958.282 -74266.336 10 0 59226 5400.00000 0 -24925877.924 -4110446.221 -3279648.219 10 0 59226 6300.00000 0 -24332368.415 -3932921.537 -6421061.315 10 0 59226 7200.00000 0 -23347696.618 -3799195.749 -9437184.615 10 0 59226 8100.00000 0 -21995885.476 -3761121.312 -12269110.175 10 0 59226 9000.00000 0 -20313072.204 -3865147.545 -14861513.664 10 0 59226 9900.00000 0 -18346099.176 -4150111.349 -17163754.192 10 0 59226 10800.00000 0 -16150667.369 -4645358.922 -19130880.088 10 0 59226 11700.00000 0 -13789130.711 -5369280.290 -20724519.447 10 0 59226 12600.00000 0 -11328025.161 -6328320.469 -21913636.906 10 0 59226 13500.00000 0 -8835437.537 -7516510.287 -22675141.348 10 0 59226 14400.00000 0 -6378325.637 -8915537.328 -22994332.611 10 0 59226 15300.00000 0 -4019902.915 -10495353.997 -22865178.918 10 0 59226 16200.00000 0 -1817197.582 -12215296.659 -22290420.467 10 0 59226 17100.00000 0 181112.036 -14025667.948 -21281498.311 10 0 59226 18000.00000 0 1936496.255 -15869714.687 -19858311.285 10 0 59226 18900.00000 0 3421933.439 -17685917.275 -18048807.211 10 0 59226 19800.00000 0 4622775.609 -19410493.594 -15888417.787 10 0 59226 20700.00000 0 5537086.848 -20980011.645 -13419349.677 10 0 59226 21600.00000 0 6175443.645 -22334001.156 -10689746.874 10 0 59226 22500.00000 0 6560208.884 -23417454.836 -7752741.748 10 0 59226 23400.00000 0 6724313.150 -24183115.043 -4665414.202 10 0 59226 24300.00000 0 6709597.460 -24593451.131 -1487679.760 10 0 59226 25200.00000 0 6564789.431 -24622246.044 1718871.524 10 0 59226 26100.00000 0 6343199.699 -24255727.277 4892162.750 10 0 59226 27000.00000 0 6100236.532 -23493196.543 7970821.870 10 0 59226 27900.00000 0 5890843.469 -22347133.290 10895355.099 10 0 59226 28800.00000 0 5766967.460 -20842768.905 13609280.378 10 0 59226 29700.00000 0 5775163.175 -19017150.102 16060200.425 10 0 59226 30600.00000 0 5954433.105 -16917730.571 18200796.339 10 0 59226 31500.00000 0 6334393.056 -14600549.073 19989724.211 10 0 59226 32400.00000 0 6933839.148 -12128068.505 21392399.237 10 0 59226 33300.00000 0 7759775.993 -9566763.962 22381653.742 10 0 59226 34200.00000 0 8806946.921 -6984557.818 22938257.570 10 0 59226 35100.00000 0 10057886.856 -4448205.809 23051291.599 10 0 59226 36000.00000 0 11483497.278 -2020740.152 22718367.308 10 0 59226 36900.00000 0 13044121.475 240926.338 21945687.719 10 0 59226 37800.00000 0 14691077.902 2288137.445 20747947.481 10 0 59226 38700.00000 0 16368590.464 4082284.475 19148072.383 10 0 59226 39600.00000 0 18016037.836 5596176.834 17176801.339 10 0 59226 40500.00000 0 19570430.135 6814935.075 14872116.620 10 0 59226 41400.00000 0 20969011.075 7736368.513 12278531.033 10 0 59226 42300.00000 0 22151877.408 8370820.495 9446243.754 10 0 59226 43200.00000 0 23064505.770 8740486.691 6430179.408 10 0 59226 44100.00000 0 23660079.844 8878234.000 3288927.816 10 0 59226 45000.00000 0 23901518.190 8825968.991 83604.551 10 0 59226 45900.00000 0 23763115.052 8632624.557 -3123345.402 10 0 59226 46800.00000 0 23231722.338 8351850.239 -6269376.774 10 0 59226 47700.00000 0 22307420.228 8039505.068 -9293080.454 10 0 59226 48600.00000 0 21003645.751 7751060.766 -12135401.327 10 0 59226 49500.00000 0 19346771.903 7539027.574 -14740811.710 10 0 59226 50400.00000 0 17375153.830 7450514.187 -17058415.287 10 0 59226 51300.00000 0 15137681.647 7525027.707 -19042958.110 10 0 59226 52200.00000 0 12691900.855 7792609.063 -20655725.364 10 0 59226 53100.00000 0 10101780.074 8272384.694 -21865305.192 10 0 59226 54000.00000 0 7435220.747 8971597.076 -22648204.094 10 0 59226 54900.00000 0 4761414.321 9885155.773 -22989301.828 10 0 59226 55800.00000 0 2148158.649 10995728.044 -22882137.302 10 0 59226 56700.00000 0 -340753.570 12274364.696 -22329020.746 10 0 59226 57600.00000 0 -2647965.042 13681633.938 -21340971.114 10 0 59226 58500.00000 0 -4724701.808 15169214.287 -19937481.307 10 0 59226 59400.00000 0 -6532550.460 16681878.185 -18146117.270 10 0 59226 60300.00000 0 -8044792.425 18159781.758 -16001960.258 10 0 59226 61200.00000 0 -9247242.052 19540963.356 -13546904.601 10 0 59226 62100.00000 0 -10138556.569 20763945.282 -10828825.944 10 0 59226 63000.00000 0 -10730008.237 21770329.148 -7900637.260 10 0 59226 63900.00000 0 -11044731.545 22507276.051 -4819251.969 10 0 59226 64800.00000 0 -11116480.181 22929768.135 -1644474.930 10 0 59226 65700.00000 0 -10987948.691 23002557.632 1562156.849 10 0 59226 66600.00000 0 -10708731.445 22701722.961 4738561.205 10 0 59226 67500.00000 0 -10333006.169 22015768.058 7823302.919 10 0 59226 68400.00000 0 -9917040.134 20946220.290 10756768.600 10 0 59226 69300.00000 0 -9516623.825 19507703.033 13482302.622 10 0 59226 70200.00000 0 -9184539.396 17727480.642 15947283.603 10 0 59226 71100.00000 0 -8968169.191 15644494.899 18104122.304 10 0 59226 72000.00000 0 -8907343.543 13307932.692 19911163.316 10 0 59226 72900.00000 0 -9032516.923 10775383.367 21333474.953 10 0 59226 73800.00000 0 -9363348.021 8110660.592 22343513.641 10 0 59226 74700.00000 0 -9907742.805 5381377.003 22921651.191 10 0 59226 75600.00000 0 -10661400.876 2656369.703 23056555.582 10 0 59226 76500.00000 0 -11607885.060 3080.717 22745418.112 10 0 59226 77400.00000 0 -12719212.967 -2515001.368 21994022.103 10 0 59226 78300.00000 0 -13956948.006 -4840734.617 20816650.829 10 0 59226 79200.00000 0 -15273746.804 -6925454.046 19235834.835 10 0 59226 80100.00000 0 -16615300.945 -8730751.354 17281941.536 10 0 59226 81000.00000 0 -17922594.172 -10229830.235 14992612.779 10 0 59226 81900.00000 0 -19134382.495 -11408380.415 12412058.850 10 0 59226 82800.00000 0 -20189794.345 -12264932.909 9590220.550 10 0 59226 83700.00000 0 -21030941.977 -12810680.502 6581813.723 10 0 59226 84600.00000 0 -21605433.754 -13068769.767 3445273.539 10 0 59226 85500.00000 0 -21868680.081 -13073093.328 241618.528 99